Orbital Elements at Epoch 2459200.5 (2020-Dec-17.0) TDB
Reference: JPL 17 (heliocentric ecliptic J2000)
Element | Value | Uncertainty (1-sigma) | Units |
e | .1437784657035113 | 6.2369e-08 | |
a | 2.405527710958315 | 1.1656e-08 | au |
q | 2.059664627469449 | 1.497e-07 | au |
i | 9.496820096169282 | 5.1679e-06 | deg |
node | 29.20422184650691 | 3.19e-05 | deg |
peri | 269.3282666821097 | 3.6265e-05 | deg |
M | 151.0324957017475 | 1.7888e-05 | deg |
tp | 2458628.781992772069 (2019-May-25.28199277) | 6.7597e-05 | TDB |
period | 1362.743041792124 3.73 | 9.9045e-06 2.712e-08 | d yr |
n | .264173060481431 | 1.92e-09 | deg/d |
Q | 2.751390794447181 | 1.3332e-08 | au |
|
| | Orbit Determination Parameters
Additional Information
|